Location: ??????
(38.0677°N, 22.9870°E)
Time: 15:48:28
(UTC+00:00)

Cosmos 2360 Rocket - Pass Details

Date: 23 May 2024
Orbit: 832 x 846 km, 71.0° (Epoch: 24 June)

Event Time Altitude Azimuth Distance (km) Brightness Sun altitude
Rises 02:01:32 0° 328° (NNW) 3,411 5.4 -12.3°
Reaches altitude 10° 02:04:10 10° 319° (NW) 2,472 4.6 -11.9°
Maximum altitude 02:09:14 35° 256° (WSW) 1,346 2.8 -11.2°
Drops below altitude 10° 02:14:17 10° 192° (SSW) 2,456 4.2 -10.4°
Sets 02:16:54 0° 184° (S) 3,385 5.0 -9.9°
